[Iaude] MPEC B36: 2024 BM [a=1.71,e=0.41,i=5.0,H=26.9]
    mpec at marsden.cfa.harvard.edu 
    mpec at marsden.cfa.harvard.edu
       
    Thu Jan 18 15:38:17 EST 2024
    
    
  
M.P.E.C. 2024-B36                              Issued 2024 January 18, 20:36 UT
     The Minor Planet Electronic Circulars contain information on unusual
         minor planets, routine data on comets and natural satellites,
         and occasional editorial announcements.  They are published
    on behalf of Division F of the International Astronomical Union by the
          Minor Planet Center, Smithsonian Astrophysical Observatory,
                          Cambridge, MA 02138, U.S.A.
			  
             Prepared using the Tamkin Foundation Computer Network
                              MPC at CFA.HARVARD.EDU
            URL https://www.minorplanetcenter.net/    ISSN 1523-6714
                                    2024 BM                                     
Observations:
     K24B00M*KC2024 01 17.80558 06 59 09.27 +59 13 00.4          19.2 GXEB036L51
     K24B00M KC2024 01 17.80663 06 59 11.81 +59 12 51.8          19.4 GXEB036L51
     K24B00M KC2024 01 17.80767 06 59 14.47 +59 12 43.8          19.4 GXEB036L51
     K24B00M KC2024 01 17.85799 07 01 20.98 +59 05 49.0          19.9 GXEB036L51
     K24B00M KC2024 01 17.86023 07 01 26.74 +59 05 29.5          19.8 GXEB036L51
     K24B00M KC2024 01 17.86247 07 01 32.31 +59 05 09.5          20.3 GXEB036L51
     K24B00M KC2024 01 17.88012707 02 33.643+59 01 23.20         20.5 GVEB036J95
     K24B00M KC2024 01 17.88544507 02 47.282+59 00 39.24         20.2 GVEB036J95
     K24B00M KC2024 01 17.89010507 02 59.182+59 00 01.22         20.1 GVEB036J95
     K24B00M KC2024 01 17.99086607 07 15.857+58 45 06.12         20.7 GVEB036J95
     K24B00M KC2024 01 17.99614307 07 29.242+58 44 15.40         20.5 GVEB036J95
     K24B00M KC2024 01 18.27489107 20 14.050+57 59 02.00         20.04GVEB036I52
     K24B00M KC2024 01 18.27548307 20 15.511+57 58 55.74         20.56GVEB036I52
     K24B00M KC2024 01 18.27606407 20 17.020+57 58 49.22         20.40GVEB036I52
     K24B00M KC2024 01 18.27665907 20 18.517+57 58 42.35         20.60GVEB036I52
     K24B00M KC2024 01 18.83586707 45 49.051+55 59 01.43         19.5 GVEB036J95
     K24B00M hC2024 01 18.83589707 45 46.92 +56 00 16.4          20.4 GVEB036L01
     K24B00M hC2024 01 18.83752907 45 51.07 +55 59 55.1          20.2 GVEB036L01
     K24B00M KC2024 01 18.84119607 46 02.784+55 57 51.73         19.7 GVEB036J95
     K24B00M KC2024 01 18.84676607 46 17.131+55 56 38.87         20.0 GVEB036J95
Observer details:
I52 Steward Observatory, Mt. Lemmon Station.  Observer D. Rankin.  Measurers
    E. C. Beshore, D. Fay, J. B. Fazekas, D. C. Fuls, A. R. Gibbs, A. D.
    Grauer, H. Groeller, J. K. Hogan, R. A. Kowalski, S. M. Larson, G. J.
    Leonard, D. Rankin, R. L. Seaman, F. C. Shelly, K. W. Wierzchos.  1.0-m
    prime focus + CCD.
J95 Great Shefford.  Observer P. Birtwhistle.  0.41-m f/6.3 Schmidt-Cassegrain
    + CCD.
L01 Visnjan Observatory, Tican.  Observer K. Korlevic.  1.0-m f/2.9 reflector
    + CCD.
L51 MARGO, Nauchnyi.  Observer G. Borisov.  0.50-m f/1.9 reflector + CCD.
Orbital elements:
2024 BM                                                  Earth MOID = 0.0173 AU
Epoch 2023 Sept. 13.0 TT = JDT 2460200.5                MPC                     
M 302.38063              (2000.0)            P               Q                  
n   0.44145971     Peri.  174.55919     -0.51215835     -0.85605337             
a   1.7082129      Node   306.22940     +0.78471951     -0.43336595             
e   0.4132821      Incl.    4.96115     +0.34915487     -0.28172074             
P   2.23           H   26.95          G   0.15           U   8                  
Residuals in seconds of arc
240117 L51  1.1+  0.4-    240117 J95  0.0   0.1-    240118 I52  0.5+  0.6-
240117 L51  0.2+  0.7-    240117 J95  0.3-  0.4+    240118 J95  0.1+  0.1+
240117 L51  0.5+  0.4-    240117 J95  0.3+  0.6+    240118 L01  0.9-  0.5+
240117 L51  0.4-  0.1-    240117 J95  0.1+  0.1+    240118 L01  0.7-  0.5+
240117 L51  0.6+  0.3-    240118 I52  0.2-  0.0     240118 J95  0.2+  0.2-
240117 L51  0.2+  1.0-    240118 I52  0.2-  0.1+    240118 J95  0.5+  0.2-
240117 J95  0.0   0.1+    240118 I52  0.3+  0.1-
Ephemeris:
2024 BM                  a,e,i = 1.71, 0.41, 5                   q = 1.0022
Date    TT    R. A. (2000) Decl.     Delta      r    Elong.  Phase     V
2023 12 19    02 21 58.1 +48 56 15   0.1165  1.0668   133.0    42.5    24.1
...
2024 01 03    02 38 24.5 +53 41 58   0.06766 1.0227   124.1    52.8    23.1
...
2024 01 11    03 38 24.1 +58 59 38   0.04276 1.0089   125.5    52.5    22.1
...
2024 01 17    06 23 14.0 +60 40 02   0.02658 1.0034   137.3    41.6    20.7
2024 01 18    07 07 41.0 +58 43 02   0.02448 1.0029   141.0    38.1    20.4
2024 01 19    07 52 38.1 +55 20 42   0.02269 1.0026   145.2    34.1    20.2
...
2024 01 25    10 46 19.1 +13 19 58   0.02224 1.0029   145.9    33.4    20.1
...
2024 02 02    11 52 23.3 -17 41 31   0.04187 1.0099   124.9    53.1    22.0
...
2024 02 17    12 18 15.8 -29 44 50   0.08880 1.0428   126.1    49.9    23.6
A. U. Tomatic                (C) Copyright 2024 MPC           M.P.E.C. 2024-B36
    
    
More information about the Iaude
mailing list